Regional Weather Roundup
Issued by NWS Northern Indiana

Home | Current Version | Previous Version | Text Only | Print | Product List | Glossary On
Versions: 1 2 3 4 5 6 7 8 9 10 11 12 13 14 15 16 17 18 19 20 21 22 23 24 25 26 27 28 29 30 31 32 33 34 35 36 37 38 39 40 41 42 43 44 45 46 47 48 49 50
000
ASUS43 KIWX 041710
RWRIWX

KIWX WEATHER ROUNDUP
NATIONAL WEATHER SERVICE NORTHERN INDIANA
100 PM EDT FRI SEP 04 2015

NOTE: "FAIR" INDICATES FEW OR NO CLOUDS BELOW 12,000 FEET WITH NO
SIGNIFICANT WEATHER AND/OR OBSTRUCTIONS TO VISIBILITY.

* THESE STATIONS ARE NOT UNDER NWS QUALITY CONTROL. THEY ALSO MAY NOT
  REPORT WEATHER SUCH AS PRECIPITATION OR FOG.

INZ001>027-041800-
NORTHERN INDIANA

CITY           SKY/WX    TMP DP  RH WIND       PRES   REMARKS
GARY*          PTSUNNY   77  68  73 VRB6      30.04S
VALPARAISO     CLOUDY    81  71  71 W5        30.04S
MICHIGAN CITY* MOSUNNY   75  72  88 N5        30.04F
LAPORTE*       MOSUNNY   83  73  73 W5        30.04F
KNOX*          PTSUNNY   81  68  65 W3        30.02F
SOUTH BEND     SUNNY     79  69  71 VRB6      30.04F
ELKHART*       MOSUNNY   79  68  69 NW5       30.04F
GOSHEN         MOSUNNY   80  70  71 W6        30.03F
MONTICELLO*    MOSUNNY   85  73  68 CALM      30.02S
LOGANSPORT*    SUNNY     86  64  48 W3        30.04S
ROCHESTER*     SUNNY     88  70  55 SW3       30.03F
WARSAW*        MOSUNNY   81  72  74 W5        30.03F
ANGOLA*        MOSUNNY   81  72  74 NW6       30.04S
FORT WAYNE     TSTM      69  61  75 NE14G45   30.05R VSB 1/2
HUNTINGTON*    MOSUNNY   87  65  49 W9        30.02S THUNDER
PERU/GRISSOM   SUNNY     87  71  57 SW8       30.02F
MARION*        MOSUNNY   87  56  35 W9        30.04S

$$
INZ028>050-041800-
CENTRAL INDIANA

CITY           SKY/WX    TMP DP  RH WIND       PRES   REMARKS
LAFAYETTE      SUNNY     89  66  46 W7        30.02S
KOKOMO*        MOSUNNY   90  70  51 NW9       30.03S HX  95
MUNCIE*        SUNNY     86  68  54 W9        30.04F
INDIANAPOLIS   MOSUNNY   91  66  43 W8        30.04F

$$
MIZ043>046-050>051-056>058-064>065-071>073-077>080-041800-
SOUTHWEST LOWER MICHIGAN

CITY           SKY/WX    TMP DP  RH WIND       PRES   REMARKS
BATTLE CREEK   PTSUNNY   79  65  62 W8        30.04S
BENTON HARBOR  MOSUNNY   74  66  76 W6        30.04S
COLDWATER*     SUNNY     77  65  68 W3        30.04F
HILLSDALE*     SUNNY     77  69  77 NW7       30.05S
HOLLAND        PTSUNNY   76  66  71 W8        30.04S
GRAND RAPIDS   CLOUDY    73  67  81 W6        30.04R
KALAMAZOO      MOSUNNY   79  64  60 W9        30.04S
STURGIS*       SUNNY     79  70  73 W3        30.04S
THREE RIVERS*  FAIR      78  67  68 CALM      30.04F

$$
OHZ001>008-015>018-024>025-041800-
NORTHWEST OHIO

CITY           SKY/WX    TMP DP  RH WIND       PRES   REMARKS
WAUSEON*       PTSUNNY   82  75  78 W9        30.02F
DEFIANCE       MOSUNNY   84  70  62 CALM      30.02S
FINDLAY        MOSUNNY   86  71  60 S10       30.02F
TOLEDO EXPRESS PTSUNNY   83  71  67 SW3       30.01F
TOLEDO METCALF MOSUNNY   84  70  62 SW6       30.02F
LIMA           PTSUNNY   84  70  62 S6        30.04F

$$
AND FOR LAKE MICHIGAN COASTAL AND OPEN LAKE BUOY OBSERVATIONS

STATION/POSITION TEMP    WIND        PRES    VSBY  WAVE
                 AIR SEA DIR/SP/G                  HT/PER
                 (F)     (DEG/KT/KT) (MB)    (MI)  (FT/S)
CALUMET HARBOR    73      20/  6/  8   N/A
MICHIGAN CITY     74     340/  5/  6   N/A
BURNS HARBOR      72      20/  5/  6 1017.6R
SAINT JOSEPH      73     330/  3/  5 1018.3R
SOUTH LAKE BUOY   68 71  290/  6/  8 1016.9R
4 MI NW BRIDGMAN  71 76   30/  4/  6   N/A           1/ 4
MICHIGAN CITY     72 74   20/  6/  8   N/A           1/ 4

$$
&&



USA.gov is the U.S. government's official web portal to all federal, state and local government web resources and services.